"Pseudo-MPEC" for P21THA8

Created 2024 Apr 22 14:22:08 UT using Find_Orb

Click here for an explanation of pseudo-MPECs

 
 Astrometry: 
     P21THA8* C2024 04 18)/n'H8[]41!U@G0BDXf70+ZAstrometry!:QoH95+XDy_llt*Z__F52
     P21THA8  C2024 04 185%,yGPWhAgsh4-86GMuYKtrrflG+;6dG6fQmTM5M)W;6I+7PpVUhF52
     P21THA8  C2024 04 18NA4*BsE3^FIJQp$X_+aqGR@,iK3:'h\Ucq9,j^?N^BR5lVn,/#caF52
     P21THA8  C2024 04 18wo+H\E)$'8hRQNC5GKsCXc5hWu*@xmredacted;(P=3RS2\XmtFLF52
     P21THA8 |C2024 04 19NC;OH5rRaoc]y)5G1exclickq0T)$N)$1G:o+fv]NEFeDOTE;tc9807
     P21THA8 |C2024 04 1985$F\heretH`u3-kNVP:,gBQgaPpu169%(N)Nl?n%Q\fBdvL$)9!807
     P21THA8 |C2024 04 194ZforQ2nH-A*5$2'explanationw5P@fBcP?i.]/6=Un8Ie;0,EE807
     P21THA8 KC2024 04 20.44208715 47 46.712-07 07 22.15   ~4KBq       VNEOCPV06
     P21THA8 KC2024 04 20.44607915 47 46.828-07 07 19.70   ~4KBq 21.88GVNEOCPV06
     P21THA8 KC2024 04 20.45007215 47 46.932-07 07 16.79   ~4KBq 21.96GVNEOCPV06

Station data:
(807) Cerro Tololo Observatory, La Serena  (S30.169133 W70.805900)  Chile.
   Observer R. Holmes. 0.61-m f/6.5 astrograph + CCD.
(F52) Pan-STARRS 2, Haleakala  (N20.707382 W156.255910)  US/Hawaii.
   Observers J. Bulger, T. Dukes, T. Lowe, A. Schultz, M. Willman. Measurers
   K. Chambers, S. Chastel, T. de Boer, L. Denneau, J. Fairlamb, H.
   Flewelling, M. Huber, C.-C. Lin, E. Magnier, Y. Ramanjooloo, R. Wainscoat,
   R. Weryk. 1.8-m Ritchey-Chrétien + CCD.
(V06) Catalina Sky Survey-Kuiper  (N32.416871 W110.732550)  US/Arizona.
   Observers T. A. Pruyne, B. M. Africano, E. J. Christensen, G. A. Farneth,
   D. C. Fuls, A. R. Gibbs, A. D. Grauer, H. Gröller, J. A. Johnson, R. A.
   Kowalski, S. M. Larson, G. J. Leonard, D. Rankin, R. L. Seaman, F. C.
   Shelly, K. W. Wierzchoś. 1.55-m reflector + CCD.

Orbital elements:  P21THA8
   Perihelion 2024 Jun 13.41091 +/- 20.3 TT =  9:51:42 (JD 2460474.91091)
Epoch 2024 Apr 20.0 TT = JDT 2460420.5   Earth MOID: 0.5061   Ju: 0.7307
M 349.68963205 +/- 7                (J2000 ecliptic)             AutoNEOCP
n   0.18949081 +/- 0.0612           Peri.   85.45685 +/- 24
a   3.00199940 +/- 0.647            Node   169.04382 +/- 8
e   0.4996713 +/- 0.065             Incl.    6.36572 +/- 0.9
P   5.20                   H 21.08  G  0.15   U 10.9  SR
q 1.50198629 +/- 0.148    Q 4.50201252 +/- 1.49
From 10 observations 2024 Apr. 18-20 (45.1 hr); mean residual 0".36
Residuals in arcseconds: 
240418 F52  .11+  .18+    240419 807  .34-  .76-    240420 V06  .29+  .02+    
240418 F52  .22+  .02+    240419 807  .40-  .45-    240420 V06  .01+  .46+    
240418 F52  .18-  .12-    240419 807  .97-  .09-    
240418 F52  .01+  .04+    240420 V06  .39+  .04+    

Ephemerides (geocentric):
Date (UTC) HH   RA             Dec           delta  r     elong  mag " sig PA
---- --------  ------------   ------------  ------ ------ -----  --- --------
2024 04 22 14  15 48 59.238   -06 45 06.05  .62335 1.5860 153.0 21.9 17.1 155
2024 04 22 15  15 49 00.574   -06 44 40.02  .62312 1.5859 153.0 21.9 17.6 155
2024 04 22 16  15 49 01.907   -06 44 14.00  .62288 1.5858 153.0 21.9 18.1 155
2024 04 22 17  15 49 03.238   -06 43 47.97  .62264 1.5856 153.0 21.9 18.6 155
2024 04 22 18  15 49 04.566   -06 43 21.93  .62240 1.5855 153.1 21.9 19.1 155
2024 04 22 19  15 49 05.891   -06 42 55.88  .62216 1.5854 153.1 21.9 19.7 156
2024 04 22 20  15 49 07.213   -06 42 29.83  .62193 1.5852 153.1 21.9 20.2 156
2024 04 22 21  15 49 08.533   -06 42 03.77  .62169 1.5851 153.1 21.9 20.7 156
2024 04 22 22  15 49 09.850   -06 41 37.71  .62145 1.5850 153.2 21.9 21.3 156
2024 04 22 23  15 49 11.164   -06 41 11.64  .62122 1.5849 153.2 21.9 21.8 156
2024 04 23 00  15 49 12.476   -06 40 45.56  .62098 1.5847 153.2 21.9 22.3 156
2024 04 23 01  15 49 13.785   -06 40 19.48  .62075 1.5846 153.3 21.9 22.9 156
2024 04 23 02  15 49 15.091   -06 39 53.40  .62051 1.5845 153.3 21.9 23.5 156
2024 04 23 03  15 49 16.395   -06 39 27.30  .62027 1.5843 153.3 21.9 24.0 156
2024 04 23 04  15 49 17.696   -06 39 01.21  .62004 1.5842 153.3 21.9 24.6 156
2024 04 23 05  15 49 18.994   -06 38 35.10  .61980 1.5841 153.4 21.9 25.2 156
2024 04 23 06  15 49 20.289   -06 38 08.99  .61957 1.5840 153.4 21.9 25.8 156
2024 04 23 07  15 49 21.582   -06 37 42.88  .61934 1.5838 153.4 21.9 26.4 156
2024 04 23 08  15 49 22.872   -06 37 16.76  .61910 1.5837 153.5 21.9 27.0 156
2024 04 23 09  15 49 24.160   -06 36 50.63  .61887 1.5836 153.5 21.9 27.6 156
2024 04 23 10  15 49 25.445   -06 36 24.50  .61863 1.5835 153.5 21.9 28.2 156
2024 04 23 11  15 49 26.727   -06 35 58.37  .61840 1.5833 153.5 21.9 28.9 156
2024 04 23 12  15 49 28.006   -06 35 32.22  .61817 1.5832 153.6 21.9 29.5 156
2024 04 23 13  15 49 29.283   -06 35 06.08  .61794 1.5831 153.6 21.9 30.1 156
2024 04 23 14  15 49 30.557   -06 34 39.93  .61770 1.5829 153.6 21.9 30.8 156
2024 04 23 15  15 49 31.829   -06 34 13.77  .61747 1.5828 153.7 21.9 31.4 156
2024 04 23 16  15 49 33.097   -06 33 47.61  .61724 1.5827 153.7 21.9 32.1 156
2024 04 23 17  15 49 34.363   -06 33 21.44  .61701 1.5826 153.7 21.9 32.8 156
2024 04 23 18  15 49 35.627   -06 32 55.27  .61678 1.5824 153.7 21.9 33.4 156
2024 04 23 19  15 49 36.888   -06 32 29.09  .61655 1.5823 153.8 21.9 34.1 156
2024 04 23 20  15 49 38.146   -06 32 02.91  .61631 1.5822 153.8 21.9 34.8 156
2024 04 23 21  15 49 39.401   -06 31 36.72  .61608 1.5821 153.8 21.9 35.5 156
2024 04 23 22  15 49 40.654   -06 31 10.53  .61585 1.5819 153.8 21.9 36.2 156
2024 04 23 23  15 49 41.904   -06 30 44.34  .61562 1.5818 153.9 21.9 36.9 156
2024 04 24 00  15 49 43.151   -06 30 18.14  .61539 1.5817 153.9 21.9 37.7 156
2024 04 24 01  15 49 44.396   -06 29 51.93  .61517 1.5816 153.9 21.9 38.4 156
2024 04 24 02  15 49 45.638   -06 29 25.72  .61494 1.5814 154.0 21.9 39.1 156
2024 04 24 03  15 49 46.877   -06 28 59.51  .61471 1.5813 154.0 21.9 39.8 156
2024 04 24 04  15 49 48.114   -06 28 33.29  .61448 1.5812 154.0 21.9 40.6 156
2024 04 24 05  15 49 49.348   -06 28 07.07  .61425 1.5810 154.0 21.9 41.3 156
2024 04 24 06  15 49 50.579   -06 27 40.84  .61402 1.5809 154.1 21.9 42.1 156
2024 04 24 07  15 49 51.808   -06 27 14.61  .61379 1.5808 154.1 21.9 42.9 156
2024 04 24 08  15 49 53.034   -06 26 48.38  .61357 1.5807 154.1 21.9 43.6 157
2024 04 24 09  15 49 54.257   -06 26 22.14  .61334 1.5805 154.2 21.9 44.4 157
2024 04 24 10  15 49 55.478   -06 25 55.90  .61311 1.5804 154.2 21.9 45.2 157
2024 04 24 11  15 49 56.696   -06 25 29.65  .61289 1.5803 154.2 21.9 46.0 157
2024 04 24 12  15 49 57.912   -06 25 03.40  .61266 1.5802 154.2 21.9 46.8 157
2024 04 24 13  15 49 59.124   -06 24 37.14  .61243 1.5800 154.3 21.9 47.6 157